EW1107 Weather Reports


Display with metric or nautical units.
time (UTC)temp
F
wind
direction
speed
MPH
gust
MPH
rain 1hr
in
rain 24hr
in
rain mn
in
humidity
%
barometer
mb
20260906163521 62 300 10.0 21.0 0.00 0.17 0.00 71 1024.5
20260906163020 63 306 9.0 21.0 0.00 0.17 0.00 71 1024.5
20260906162519 63 253 6.0 17.0 0.00 0.17 0.00 70 1024.4
20260906162018 63 291 10.0 21.0 0.00 0.17 0.00 70 1024.3
20260906161517 63 296 7.0 21.0 0.00 0.17 0.00 70 1024.2
20260906161116 63 295 10.0 21.0 0.00 0.17 0.00 69 1024.1
20260906160517 63 319 9.0 24.0 0.00 0.17 0.00 69 1024.1
20260906160016 63 270 13.0 24.0 0.00 0.17 0.00 69 1024.1
20260906155516 63 338 9.0 27.0 0.00 0.17 0.00 69 1024.0
20260906155016 64 306 15.0 23.0 0.00 0.17 0.00 69 1023.9
20260906154516 64 250 12.0 23.0 0.00 0.17 0.00 70 1023.9
20260906154016 63 291 15.0 23.0 0.00 0.17 0.00 70 1024.0
20260906153518 63 296 9.0 24.0 0.00 0.17 0.00 70 1024.0
20260906153018 63 295 13.0 24.0 0.00 0.17 0.00 69 1024.0
20260906152516 63 304 12.0 26.0 0.00 0.17 0.00 70 1024.0
20260906152013 63 285 12.0 29.0 0.00 0.17 0.00 69 1023.9
20260906151512 64 317 12.0 29.0 0.00 0.17 0.00 69 1023.9
20260906151012 64 305 18.0 32.0 0.00 0.17 0.00 68 1023.8
20260906150512 64 250 11.0 32.0 0.00 0.17 0.00 68 1023.9
20260906150012 64 263 10.0 28.0 0.00 0.17 0.00 69 1023.9
20260906145511 63 297 13.0 31.0 0.00 0.17 0.00 69 1023.7
20260906145011 64 274 16.0 36.0 0.00 0.17 0.00 68 1023.7
20260906144515 64 329 19.0 36.0 0.00 0.17 0.00 69 1023.7
20260906144010 64 336 11.0 22.0 0.00 0.17 0.00 70 1023.6
20260906143510 63 316 10.0 25.0 0.00 0.17 0.00 70 1023.7
20260906143012 64 303 15.0 25.0 0.00 0.17 0.00 69 1023.6
20260906142509 64 261 9.0 25.0 0.00 0.17 0.00 70 1023.6
20260906142009 63 299 9.0 24.0 0.00 0.17 0.00 71 1023.7
20260906141512 63 259 10.0 29.0 0.00 0.17 0.00 71 1023.7
20260906141008 64 286 18.0 30.0 0.00 0.17 0.00 70 1023.7
20260906140607 63 294 15.0 30.0 0.00 0.17 0.00 70 1023.7
20260906140012 63 288 17.0 30.0 0.00 0.17 0.00 70 1023.7
20260906135507 63 282 15.0 32.0 0.00 0.17 0.00 71 1023.7
20260906135006 63 275 15.0 35.0 0.00 0.17 0.00 72 1023.7
20260906134505 62 313 18.0 35.0 0.00 0.17 0.00 72 1023.6
20260906134005 63 305 15.0 29.0 0.00 0.17 0.00 72 1023.5
20260906133504 62 294 13.0 25.0 0.00 0.17 0.00 73 1023.5
20260906133004 62 272 14.0 29.0 0.00 0.17 0.00 74 1023.5
20260906132504 63 294 15.0 29.0 0.00 0.17 0.00 73 1023.5
20260906132003 63 292 14.0 28.0 0.00 0.17 0.00 72 1023.5
20260906131503 64 248 12.0 28.0 0.00 0.17 0.00 71 1023.4
20260906131002 64 271 13.0 28.0 0.00 0.17 0.00 72 1023.4
20260906130600 63 289 11.0 25.0 0.00 0.17 0.00 73 1023.3
20260906130502 63 284 13.0 25.0 0.00 0.17 0.00 74 1023.3
20260906130112 62 278 9.0 35.0 0.00 0.17 0.00 74 1023.3
20260906125604 63 288 17.0 35.0 0.00 0.17 0.00 73 1023.2
20260906125100 63 56 10.0 29.0 0.00 0.17 0.00 74 1023.2
20260906124559 62 310 12.0 29.0 0.00 0.17 0.00 74 1023.2
20260906124101 62 281 10.0 29.0 0.00 0.17 0.00 75 1023.4
20260906123559 61 293 10.0 32.0 0.00 0.17 0.00 74 1023.2
20260906123100 61 311 13.0 34.0 0.00 0.17 0.00 74 1023.2
20260906122602 61 297 21.0 34.0 0.00 0.17 0.00 73 1023.2
20260906122057 62 294 15.0 31.0 0.00 0.17 0.00 74 1023.2
20260906121556 62 301 17.0 31.0 0.00 0.17 0.00 74 1023.1
20260906121057 62 299 10.0 25.0 0.00 0.17 0.00 75 1023.2
20260906120555 62 292 13.0 25.0 0.00 0.17 0.00 74 1023.1
20260906120155 63 293 7.0 19.0 0.00 0.17 0.00 74 1023.1
20260906115554 62 288 9.0 26.0 0.00 0.17 0.00 76 1023.0
20260906115054 61 280 9.0 28.0 0.00 0.17 0.00 76 1023.0
20260906114554 61 269 12.0 28.0 0.00 0.17 0.00 75 1023.0
20260906114053 62 297 13.0 22.0 0.00 0.17 0.00 74 1023.0
20260906113554 62 304 6.0 22.0 0.00 0.17 0.00 76 1022.9
20260906113052 60 267 13.0 22.0 0.00 0.17 0.00 78 1022.9
20260906112554 59 243 8.0 19.0 0.00 0.17 0.00 79 1022.9
20260906112050 59 278 10.0 24.0 0.00 0.17 0.00 78 1022.9
20260906111550 59 316 13.0 30.0 0.00 0.17 0.00 78 1022.8
20260906111049 59 268 10.0 24.0 0.00 0.17 0.00 79 1022.8
20260906110552 59 251 12.0 31.0 0.00 0.17 0.00 79 1022.9
20260906110048 59 298 14.0 30.0 0.00 0.17 0.00 79 1022.7
20260906105548 59 286 16.0 30.0 0.00 0.17 0.00 79 1022.7
20260906105048 59 285 14.0 34.0 0.00 0.17 0.00 79 1022.6
20260906104548 59 303 18.0 34.0 0.00 0.17 0.00 78 1022.6
20260906104046 59 296 18.0 33.0 0.00 0.17 0.00 77 1022.5
20260906103547 59 277 12.0 28.0 0.00 0.17 0.00 78 1022.5
20260906103045 60 300 12.0 29.0 0.00 0.17 0.00 78 1022.3
20260906102544 60 258 15.0 29.0 0.00 0.17 0.00 78 1022.2
20260906102042 59 298 13.0 25.0 0.00 0.17 0.00 79 1022.1
20260906101542 59 309 11.0 34.0 0.00 0.17 0.00 79 1021.9
20260906101041 59 271 11.0 44.0 0.00 0.17 0.00 78 1021.9
20260906100541 59 271 20.0 44.0 0.00 0.17 0.00 78 1021.8
20260906100040 59 310 10.0 37.0 0.00 0.17 0.00 79 1021.8
20260906095038 59 265 15.0 37.0 0.00 0.17 0.00 79 1021.6
20260906094538 59 316 12.0 31.0 0.00 0.17 0.00 80 1021.6
20260906094038 59 260 8.0 28.0 0.00 0.17 0.00 79 1021.5
20260906093537 59 276 14.0 31.0 0.00 0.17 0.00 79 1021.5
20260906093048 59 306 14.0 31.0 0.00 0.17 0.00 79 1021.4
20260906092536 59 273 19.0 30.0 0.00 0.17 0.00 79 1021.3
20260906092038 59 313 15.0 28.0 0.00 0.17 0.00 80 1021.3
20260906091534 58 313 10.0 30.0 0.00 0.17 0.00 81 1021.3
20260906091037 58 324 14.0 30.0 0.00 0.17 0.00 80 1021.3
20260906090536 59 287 15.0 29.0 0.00 0.17 0.00 81 1021.3
20260906090133 59 261 9.0 37.0 0.00 0.17 0.00 80 1021.2
20260906085536 59 323 19.0 37.0 0.00 0.17 0.00 79 1021.1
20260906085031 59 267 10.0 25.0 0.00 0.17 0.00 80 1021.0
20260906084533 59 252 14.0 33.0 0.00 0.17 0.00 80 1020.9
20260906084030 59 287 13.0 33.0 0.00 0.17 0.00 80 1021.0
20260906083529 59 285 14.0 36.0 0.00 0.17 0.00 81 1020.8
20260906083028 58 239 12.0 40.0 0.00 0.17 0.00 82 1020.9
20260906082528 58 290 22.0 40.0 0.00 0.17 0.00 81 1020.8
20260906082028 58 281 19.0 35.0 0.00 0.17 0.00 81 1020.8
20260906081530 58 277 13.0 44.0 0.00 0.17 0.00 82 1020.7
20260906081026 58 281 15.0 33.0 0.00 0.17 0.00 81 1020.7
20260906080526 58 302 17.0 37.0 0.00 0.17 0.00 81 1020.6
20260906080026 58 267 14.0 37.0 0.00 0.17 0.00 81 1020.5
20260906075524 58 271 12.0 40.0 0.00 0.17 0.00 82 1020.4
20260906074522 57 281 13.0 28.0 0.00 0.17 0.00 83 1020.3
20260906074020 57 286 14.0 35.0 0.00 0.17 0.00 85 1020.3
20260906073520 56 287 10.0 35.0 0.00 0.17 0.00 85 1020.1
20260906073017 56 286 12.0 31.0 0.00 0.17 0.00 85 1020.1
20260906072519 56 321 10.0 30.0 0.00 0.17 0.00 85 1020.1
20260906072021 56 269 9.0 30.0 0.00 0.17 0.00 85 1020.2
20260906071517 56 273 10.0 31.0 0.00 0.17 0.00 85 1020.1
20260906071016 56 288 12.0 28.0 0.00 0.17 0.00 85 1020.1
20260906070517 56 235 9.0 24.0 0.00 0.17 0.00 85 1020.0
20260906070017 56 236 10.0 27.0 0.00 0.17 0.00 85 1019.9
20260906065515 56 250 15.0 30.0 0.00 0.17 0.00 85 1019.8
20260906065014 56 290 15.0 30.0 0.00 0.17 0.00 85 1019.8
20260906064517 56 265 13.0 33.0 0.00 0.17 0.00 85 1019.7
20260906064012 56 291 11.0 27.0 0.00 0.17 0.00 85 1019.7
20260906063511 56 290 12.0 32.0 0.00 0.17 0.00 85 1019.5
20260906063011 56 279 16.0 40.0 0.00 0.17 0.00 85 1019.4
20260906062510 56 348 9.0 30.0 0.00 0.17 0.00 85 1019.4
20260906062011 56 259 16.0 31.0 0.00 0.17 0.00 85 1019.3
20260906061509 56 284 17.0 29.0 0.00 0.17 0.00 85 1019.3
20260906061008 56 276 7.0 29.0 0.00 0.17 0.00 85 1019.2
20260906060510 56 308 10.0 25.0 0.00 0.17 0.00 85 1019.1
20260906060008 56 268 10.0 34.0 0.00 0.17 0.00 85 1019.0
20260906055506 55 282 10.0 34.0 0.00 0.17 0.00 85 1019.0
20260906055005 55 259 10.0 35.0 0.00 0.17 0.00 85 1018.9
20260906054504 55 296 13.0 29.0 0.00 0.17 0.00 85 1018.9
20260906054004 55 213 8.0 26.0 0.00 0.17 0.00 85 1018.8
20260906053504 55 293 10.0 31.0 0.00 0.17 0.00 85 1018.7
20260906053008 55 292 15.0 32.0 0.00 0.17 0.00 85 1018.7
20260906052502 55 251 11.0 34.0 0.00 0.17 0.00 85 1018.6
20260906052001 55 314 13.0 36.0 0.00 0.17 0.00 86 1018.6
20260906051603 55 284 17.0 36.0 0.00 0.17 0.00 86 1018.6
20260906051100 55 306 11.0 34.0 0.00 0.17 0.00 86 1018.6
20260906050559 55 297 14.0 34.0 0.00 0.17 0.00 86 1018.6
20260906050059 55 346 13.0 36.0 0.00 0.17 0.00 86 1018.6
20260906045558 55 281 13.0 36.0 0.00 0.17 0.00 86 1018.5
20260906045057 55 312 17.0 35.0 0.00 0.17 0.00 86 1018.5
20260906044555 55 287 9.0 27.0 0.00 0.17 0.00 86 1018.5
20260906044054 55 281 16.0 28.0 0.00 0.17 0.00 87 1018.4
20260906043553 55 282 15.0 30.0 0.00 0.17 0.00 87 1018.3
20260906043054 55 301 14.0 30.0 0.00 0.17 0.00 87 1018.3
20260906042550 55 298 8.0 32.0 0.00 0.17 0.00 87 1018.3
20260906042050 55 284 12.0 37.0 0.00 0.17 0.00 87 1018.2
20260906041550 55 299 18.0 37.0 0.00 0.17 0.00 87 1018.2
20260906041052 55 306 13.0 23.0 0.00 0.17 0.00 87 1018.0
20260906040548 55 280 14.0 26.0 0.00 0.17 0.00 87 1017.9
20260906040050 55 306 9.0 24.0 0.00 0.17 0.00 87 1017.8
20260906035546 55 285 11.0 29.0 0.00 0.17 0.00 87 1017.8
20260906035046 55 314 14.0 25.0 0.00 0.17 0.00 87 1017.8
20260906034546 55 286 13.0 25.0 0.00 0.17 0.00 87 1017.8
20260906033548 55 300 16.0 30.0 0.00 0.17 0.00 88 1017.7
20260906033045 55 276 15.0 40.0 0.00 0.17 0.00 88 1017.6
20260906032542 55 298 14.0 40.0 0.00 0.17 0.00 88 1017.5
20260906032042 55 272 8.0 34.0 0.00 0.17 0.00 88 1017.5
20260906031541 55 254 11.0 32.0 0.00 0.17 0.00 88 1017.4
20260906031039 55 286 9.0 31.0 0.00 0.17 0.00 88 1017.4
20260906030539 55 266 12.0 29.0 0.00 0.17 0.00 88 1017.3
20260906030039 55 298 14.0 29.0 0.00 0.17 0.00 89 1017.3
20260906025538 55 277 10.0 25.0 0.00 0.17 0.00 89 1017.3
20260906025038 55 281 9.0 29.0 0.00 0.17 0.00 89 1017.3
20260906024536 55 267 15.0 29.0 0.00 0.17 0.00 89 1017.2
20260906024036 55 242 9.0 23.0 0.00 0.17 0.00 89 1017.3
20260906023537 55 226 6.0 23.0 0.00 0.17 0.00 90 1017.2
20260906023043 55 275 9.0 31.0 0.00 0.17 0.00 90 1017.2
20260906022537 55 263 14.0 31.0 0.00 0.17 0.00 90 1017.1
20260906022040 55 242 9.0 25.0 0.00 0.17 0.00 90 1017.1
20260906021534 55 270 10.0 32.0 0.00 0.17 0.00 90 1017.0
20260906021033 55 266 7.0 32.0 0.00 0.17 0.00 91 1017.1
20260906020533 55 261 9.0 23.0 0.00 0.17 0.00 91 1017.0
20260906020034 55 273 8.0 21.0 0.00 0.17 0.00 91 1017.1
20260906015535 55 276 12.0 21.0 0.00 0.17 0.00 91 1017.1
20260906015032 55 275 9.0 29.0 0.00 0.17 0.00 91 1017.1
20260906014535 55 296 5.0 21.0 0.00 0.17 0.00 91 1017.0
20260906014036 55 272 8.0 24.0 0.00 0.17 0.00 91 1016.9
20260906013531 55 281 6.0 29.0 0.00 0.17 0.00 91 1016.9
20260906013030 55 228 16.0 35.0 0.00 0.17 0.00 91 1016.9
20260906012529 55 309 10.0 35.0 0.00 0.17 0.00 91 1016.9
20260906012033 55 264 9.0 21.0 0.00 0.17 0.00 91 1016.9
20260906011529 55 313 8.0 21.0 0.00 0.17 0.00 91 1016.8
20260906011029 55 264 8.0 24.0 0.00 0.17 0.00 91 1016.8
20260906010528 55 229 11.0 28.0 0.00 0.17 0.00 91 1016.8
20260906010028 55 254 9.0 28.0 0.00 0.18 0.00 91 1016.7
20260906005528 55 271 9.0 20.0 0.00 0.18 0.00 91 1016.8
20260906005032 55 212 9.0 19.0 0.00 0.18 0.00 91 1016.8
20260906004527 55 296 9.0 28.0 0.00 0.18 0.00 91 1016.8
20260906004027 55 301 9.0 28.0 0.00 0.18 0.00 91 1016.8
20260906003626 55 278 8.0 29.0 0.00 0.18 0.00 91 1016.7
20260906003026 55 274 13.0 23.0 0.00 0.18 0.00 91 1016.7
20260906002525 56 279 8.0 29.0 0.00 0.18 0.00 91 1016.7
20260906002024 56 270 10.0 29.0 0.00 0.18 0.00 91 1016.7
20260906001523 55 302 13.0 26.0 0.00 0.18 0.00 91 1016.6
20260906001022 55 284 12.0 24.0 0.00 0.18 0.00 91 1016.6
20260906000528 55 292 10.0 26.0 0.00 0.18 0.00 91 1016.6
20260906000022 55 299 10.0 24.0 0.00 0.18 0.00 91 1016.6
20260905235523 55 296 7.0 29.0 0.00 0.18 0.00 91 1016.6
20260905235021 56 288 8.0 37.0 0.00 0.18 0.00 91 1016.6
20260905234520 55 307 18.0 37.0 0.00 0.18 0.00 91 1016.5
20260905234023 56 323 10.0 26.0 0.00 0.18 0.00 92 1016.7
20260905233519 55 295 13.0 27.0 0.00 0.18 0.00 92 1016.6
20260905233018 56 236 13.0 34.0 0.00 0.18 0.00 92 1016.6
20260905232517 55 281 12.0 33.0 0.00 0.18 0.00 92 1016.5
20260905232016 55 294 15.0 33.0 0.00 0.18 0.00 93 1016.5
20260905231516 55 325 13.0 30.0 0.00 0.18 0.00 93 1016.4
20260905231015 55 220 14.0 30.0 0.00 0.18 0.00 93 1016.4
20260905230515 55 261 14.0 29.0 0.00 0.18 0.00 93 1016.4
20260905230015 55 234 10.0 25.0 0.00 0.19 0.00 93 1016.3
20260905225514 55 273 9.0 21.0 0.00 0.19 0.00 93 1016.4
20260905225013 55 283 9.0 19.0 0.00 0.19 0.00 93 1016.3
20260905224518 55 276 6.0 24.0 0.00 0.19 0.00 93 1016.3
20260905224014 55 314 9.0 25.0 0.00 0.19 0.00 93 1016.3
20260905223512 55 315 7.0 18.0 0.00 0.19 0.00 93 1016.4
20260905223112 55 285 6.0 21.0 0.00 0.19 0.00 93 1016.3
20260905222515 55 272 11.0 21.0 0.00 0.19 0.00 93 1016.3
20260905222011 55 284 8.0 28.0 0.00 0.19 0.00 93 1016.3
20260905221528 55 313 11.0 28.0 0.00 0.19 0.00 93 1016.3
20260905221011 55 302 12.0 28.0 0.00 0.19 0.00 93 1016.3
20260905220510 55 293 10.0 25.0 0.00 0.19 0.00 93 1016.3
20260905220009 55 310 14.0 22.0 0.00 0.19 0.19 94 1016.3
20260905215508 55 286 12.0 25.0 0.00 0.19 0.19 94 1016.2
20260905215007 55 281 9.0 27.0 0.00 0.19 0.19 94 1016.1
20260905214506 55 263 9.0 27.0 0.00 0.19 0.19 94 1016.1
20260905214005 55 283 10.0 22.0 0.00 0.19 0.19 94 1016.1
20260905213505 55 261 11.0 22.0 0.00 0.19 0.19 94 1016.0
20260905213005 55 222 9.0 21.0 0.00 0.19 0.19 94 1016.0
20260905212504 55 229 7.0 19.0 0.00 0.19 0.19 94 1016.0
20260905212003 55 273 7.0 21.0 0.00 0.19 0.19 94 1016.0
20260905211503 55 294 5.0 21.0 0.00 0.19 0.19 94 1015.9
20260905211002 55 276 7.0 17.0 0.00 0.19 0.19 93 1015.8
20260905210502 55 261 6.0 17.0 0.00 0.19 0.19 93 1015.7
20260905210000 55 260 7.0 17.0 0.00 0.19 0.19 93 1015.7
20260905205601 55 225 6.0 19.0 0.00 0.19 0.19 93 1015.6
20260905205059 55 273 6.0 19.0 0.00 0.19 0.19 93 1015.7
20260905204559 55 260 7.0 17.0 0.00 0.19 0.19 93 1015.7
20260905204058 55 281 6.0 17.0 0.00 0.19 0.19 93 1015.6
20260905203601 55 274 6.0 15.0 0.00 0.19 0.19 92 1015.5
20260905203059 55 263 4.0 17.0 0.00 0.19 0.19 92 1015.6
20260905202659 55 188 3.0 17.0 0.00 0.19 0.19 92 1015.5
20260905202058 55 259 3.0 15.0 0.00 0.19 0.19 92 1015.4
20260905201608 55 277 5.0 15.0 0.00 0.19 0.19 92 1015.5
20260905201056 55 260 5.0 14.0 0.00 0.19 0.19 92 1015.4
20260905200555 55 290 5.0 17.0 0.00 0.19 0.19 92 1015.2
20260905200058 55 261 4.0 17.0 0.00 0.34 0.19 92 1015.2
20260905195556 55 254 8.0 19.0 0.01 0.34 0.19 92 1015.2
20260905195055 55 264 8.0 23.0 0.01 0.34 0.19 92 1015.2
20260905194555 55 248 9.0 23.0 0.01 0.34 0.19 92 1015.2
20260905194057 55 261 5.0 15.0 0.02 0.34 0.19 92 1015.2
20260905193556 55 226 4.0 15.0 0.03 0.34 0.19 91 1015.3
20260905193054 55 268 5.0 14.0 0.03 0.34 0.19 91 1015.2
20260905192554 55 265 4.0 20.0 0.03 0.34 0.19 91 1015.2
20260905192054 55 242 9.0 18.0 0.03 0.34 0.19 91 1015.1
20260905191557 55 285 3.0 17.0 0.03 0.34 0.19 91 1014.9
20260905191053 55 253 4.0 17.0 0.03 0.34 0.19 90 1014.9
20260905190553 55 217 6.0 15.0 0.03 0.34 0.19 90 1014.9
20260905190105 56 260 3.0 15.0 0.03 0.34 0.19 90 1015.0
20260905185551 56 288 8.0 23.0 0.02 0.33 0.18 89 1015.1
20260905185049 56 271 8.0 32.0 0.02 0.33 0.18 89 1015.3
20260905184605 56 232 13.0 32.0 0.02 0.32 0.17 87 1015.3
20260905184049 57 300 11.0 40.0 0.01 0.31 0.17 87 1015.4
20260905183549 57 275 24.0 41.0 0.00 0.31 0.16 86 1015.4
20260905183048 57 275 16.0 64.0 0.00 0.31 0.16 87 1015.4
20260905182547 57 290 25.0 64.0 0.00 0.31 0.16 88 1015.2
20260905181545 57 225 6.0 11.0 0.01 0.31 0.16 92 1015.0
20260905181044 57 227 4.0 11.0 0.01 0.31 0.16 92 1014.5
20260905180544 57 210 2.0 9.0 0.01 0.31 0.16 92 1014.6
20260905180044 57 219 4.0 9.0 0.01 0.31 0.16 92 1014.6
20260905175546 57 232 2.0 11.0 0.01 0.31 0.16 92 1014.7
20260905175044 57 265 3.0 15.0 0.01 0.31 0.16 91 1014.6
20260905174550 57 272 5.0 16.0 0.01 0.31 0.16 91 1014.5
20260905174042 57 258 6.0 28.0 0.01 0.31 0.16 91 1014.7
20260905173541 57 275 6.0 30.0 0.01 0.31 0.16 91 1014.6
20260905173041 57 279 11.0 32.0 0.01 0.31 0.16 91 1014.7
20260905172540 57 267 15.0 32.0 0.01 0.31 0.16 91 1014.6
20260905172039 57 285 13.0 32.0 0.01 0.30 0.15 91 1014.7
20260905171539 58 234 4.0 11.0 0.02 0.30 0.15 91 1014.5
20260905171038 58 233 1.0 4.0 0.06 0.30 0.15 91 1014.2
20260905170540 58 240 0.0 0.0 0.12 0.30 0.15 91 1014.1
20260905170040 58 277 0.0 4.0 0.13 0.30 0.15 91 1014.1
20260905165537 58 277 0.0 5.0 0.13 0.30 0.15 90 1014.0
20260905165036 58 290 0.0 5.0 0.13 0.30 0.15 91 1014.0
20260905164536 58 279 0.0 3.0 0.13 0.30 0.15 90 1014.0
20260905164035 58 279 0.0 4.0 0.13 0.30 0.15 90 1014.1